Terminal Aerodrome Forecast
Issued by NWS

Home | Current Version | Previous Version | Text Only | Print | Product List | Glossary On
Versions: 1 2 3 4 5 6 7 8 9 10 11 12 13 14 15 16 17 18 19 20 21 22 23 24 25 26 27 28 29 30 31 32 33 34 35 36 37 38 39 40 41 42 43 44 45 46 47 48 49 50
000
FTUS45 KVEF 211100
TAFLAS
TAF
KLAS 211121Z 2112/2212 21007KT P6SM FEW110 SCT200
     FM211500 13007KT P6SM FEW110 SCT200
     FM212100 19010KT P6SM SCT100 PROB30 2121/2203 -TSRA BKN090CB
     FM220300 18010KT P6SM SCT110=

USA.gov is the U.S. government's official web portal to all federal, state and local government web resources and services.